When you browse on this site, cookies collect data to enhance your experience and personalize the content and advertising you see.
Visit our Privacy Policy to learn more. By continuing to use the site, you agree to this use of cookies and data.
  • în România
  • Lista ţărilor
  • Pe 7 zile
  • Temperatura apei
  • Hartă satelitară
  • Meteo pe hartă
  • Widget-uri
  • user-avatar
    Intrare

    Meteo pe oră la Booué

    Astăzi, 16 Ianuarie, Miercuri

    Timp Temperatura Precipitaţii Vânt Presiune Umiditate
    00:00 +26°C° 0 mm 1 m/s 735 mmHg 85%
    01:00 +26°C° 0 mm 1 m/s 735 mmHg 88%
    02:00 +26°C° 0 mm 1 m/s 735 mmHg 90%
    03:00 +25°C° 0 mm 1 m/s 734 mmHg 91%
    04:00 +25°C° 0 mm 1 m/s 734 mmHg 93%
    05:00 +25°C° 0 mm 1 m/s 734 mmHg 93%
    06:00 +25°C° 0 mm 1 m/s 735 mmHg 92%
    07:00 +25°C° 0 mm 1 m/s 735 mmHg 92%
    08:00 +28°C° 0 mm 1 m/s 735 mmHg 81%
    09:00 +30°C° 0 mm 1 m/s 735 mmHg 70%
    10:00 +32°C° 0 mm 1 m/s 736 mmHg 59%
    11:00 +34°C° 0 mm 1 m/s 735 mmHg 52%
    12:00 +36°C° 0 mm 1 m/s 735 mmHg 45%
    13:00 +39°C° 0 mm 1 m/s 734 mmHg 39%
    14:00 +37°C° 0 mm 1 m/s 733 mmHg 42%
    15:00 +35°C° 0 mm 1 m/s 733 mmHg 45%
    16:00 +34°C° 0 mm 1 m/s 732 mmHg 48%
    17:00 +33°C° 0 mm 1 m/s 732 mmHg 53%
    18:00 +31°C° 0 mm 1 m/s 732 mmHg 58%
    19:00 +30°C° 0 mm 1 m/s 732 mmHg 64%
    20:00 +29°C° 0.1 mm 1 m/s 733 mmHg 68%
    21:00 +29°C° 0.1 mm 1 m/s 734 mmHg 73%
    22:00 +28°C° 0.1 mm 1 m/s 734 mmHg 77%
    23:00 +27°C° 0.1 mm 1 m/s 734 mmHg 79%

    Mâine, 17 Ianuarie, Joi

    Timp Temperatura Precipitaţii Vânt Presiune Umiditate
    00:00 +27°C° 0.1 mm 1 m/s 734 mmHg 81%
    01:00 +27°C° 0.1 mm 2 m/s 734 mmHg 83%
    02:00 +26°C° 0.3 mm 1 m/s 734 mmHg 85%
    03:00 +26°C° 0.3 mm 1 m/s 733 mmHg 87%
    04:00 +25°C° 0.3 mm 1 m/s 733 mmHg 89%
    05:00 +25°C° 0.1 mm 1 m/s 733 mmHg 89%
    06:00 +25°C° 0.1 mm 1 m/s 734 mmHg 89%
    07:00 +25°C° 0.1 mm 1 m/s 734 mmHg 90%
    08:00 +27°C° 0 mm 1 m/s 735 mmHg 84%
    09:00 +28°C° 0 mm 1 m/s 735 mmHg 77%
    10:00 +30°C° 0 mm 1 m/s 736 mmHg 71%
    11:00 +31°C° 0.3 mm 1 m/s 735 mmHg 67%
    12:00 +32°C° 0.3 mm 1 m/s 734 mmHg 63%
    13:00 +34°C° 0.3 mm 2 m/s 734 mmHg 59%
    14:00 +33°C° 0.7 mm 1 m/s 733 mmHg 61%
    15:00 +33°C° 0.7 mm 1 m/s 732 mmHg 62%
    16:00 +32°C° 0.7 mm 1 m/s 732 mmHg 63%
    17:00 +31°C° 1.2 mm 1 m/s 732 mmHg 71%
    18:00 +29°C° 1.2 mm 1 m/s 733 mmHg 79%
    19:00 +27°C° 1.2 mm 1 m/s 733 mmHg 87%
    20:00 +27°C° 2.2 mm 1 m/s 734 mmHg 88%
    21:00 +26°C° 2.2 mm 1 m/s 735 mmHg 89%
    22:00 +26°C° 2.2 mm 1 m/s 736 mmHg 90%
    23:00 +25°C° 0.4 mm 1 m/s 735 mmHg 91%

    Poimâine, 18 Ianuarie, Vineri

    Timp Temperatura Precipitaţii Vânt Presiune Umiditate
    00:00 +25°C° 0.4 mm 1 m/s 735 mmHg 92%
    01:00 +25°C° 0.4 mm 1 m/s 735 mmHg 93%
    02:00 +24°C° 0 mm 1 m/s 734 mmHg 94%
    03:00 +24°C° 0 mm 1 m/s 734 mmHg 95%
    04:00 +24°C° 0 mm 1 m/s 734 mmHg 96%
    05:00 +24°C° 0 mm 1 m/s 734 mmHg 95%
    06:00 +22°C° 0 mm 0 m/s 734 mmHg 95%
    07:00 +22°C° 0 mm 0 m/s 735 mmHg 94%
    08:00 +26°C° 0.1 mm 1 m/s 735 mmHg 86%
    09:00 +28°C° 0.1 mm 1 m/s 736 mmHg 78%
    10:00 +30°C° 0.1 mm 1 m/s 737 mmHg 70%
    11:00 +31°C° 0.2 mm 1 m/s 736 mmHg 65%
    12:00 +32°C° 0.2 mm 1 m/s 735 mmHg 59%
    13:00 +33°C° 0.2 mm 1 m/s 734 mmHg 53%
    14:00 +33°C° 0.1 mm 1 m/s 733 mmHg 53%
    15:00 +34°C° 0.1 mm 2 m/s 733 mmHg 53%
    16:00 +34°C° 0.1 mm 2 m/s 732 mmHg 53%
    17:00 +31°C° 0.1 mm 1 m/s 732 mmHg 61%
    18:00 +30°C° 0.1 mm 1 m/s 733 mmHg 68%
    19:00 +28°C° 0.1 mm 1 m/s 733 mmHg 76%
    20:00 +27°C° 0.2 mm 1 m/s 734 mmHg 79%
    21:00 +27°C° 0.2 mm 1 m/s 735 mmHg 82%
    22:00 +26°C° 0.2 mm 1 m/s 735 mmHg 85%
    23:00 +26°C° 0 mm 1 m/s 735 mmHg 87%

    19 Ianuarie, Sâmbătă

    Timp Temperatura Precipitaţii Vânt Presiune Umiditate
    00:00 +25°C° 0 mm 1 m/s 735 mmHg 88%
    01:00 +25°C° 0 mm 1 m/s 734 mmHg 90%
    02:00 +24°C° 0 mm 1 m/s 734 mmHg 91%
    03:00 +22°C° 0 mm 0 m/s 734 mmHg 93%
    04:00 +22°C° 0 mm 0 m/s 733 mmHg 94%
    05:00 +22°C° 0 mm 0 m/s 734 mmHg 93%
    06:00 +22°C° 0 mm 0 m/s 734 mmHg 93%
    07:00 +22°C° 0 mm 0 m/s 735 mmHg 92%
    08:00 +25°C° 0 mm 0 m/s 735 mmHg 80%
    09:00 +28°C° 0 mm 0 m/s 736 mmHg 68%
    10:00 +31°C° 0 mm 0 m/s 736 mmHg 56%
    11:00 +32°C° 0 mm 0 m/s 735 mmHg 50%
    12:00 +34°C° 0 mm 0 m/s 734 mmHg 45%
    13:00 +36°C° 0 mm 0 m/s 733 mmHg 39%
    14:00 +35°C° 0 mm 0 m/s 733 mmHg 39%
    15:00 +36°C° 0 mm 1 m/s 732 mmHg 39%
    16:00 +36°C° 0 mm 1 m/s 732 mmHg 39%
    17:00 +34°C° 0 mm 1 m/s 732 mmHg 47%
    18:00 +32°C° 0 mm 1 m/s 733 mmHg 55%
    19:00 +30°C° 0 mm 1 m/s 733 mmHg 63%
    20:00 +29°C° 0 mm 1 m/s 734 mmHg 66%
    21:00 +28°C° 0 mm 1 m/s 734 mmHg 69%
    22:00 +26°C° 0 mm 0 m/s 735 mmHg 72%
    23:00 +27°C° 0 mm 1 m/s 735 mmHg 75%

    20 Ianuarie, Duminică

    Timp Temperatura Precipitaţii Vânt Presiune Umiditate
    00:00 +27°C° 0 mm 1 m/s 734 mmHg 77%
    01:00 +27°C° 0 mm 2 m/s 734 mmHg 80%
    02:00 +26°C° 0 mm 2 m/s 734 mmHg 83%
    03:00 +26°C° 0 mm 2 m/s 734 mmHg 87%
    04:00 +25°C° 0 mm 1 m/s 734 mmHg 90%
    05:00 +26°C° 0 mm 1 m/s 734 mmHg 90%
    06:00 +26°C° 0 mm 1 m/s 735 mmHg 89%
    07:00 +26°C° 0 mm 1 m/s 735 mmHg 89%
    08:00 +27°C° 0 mm 1 m/s 735 mmHg 82%
    09:00 +29°C° 0 mm 1 m/s 735 mmHg 76%
    10:00 +30°C° 0 mm 1 m/s 736 mmHg 69%
    11:00 +31°C° 0 mm 1 m/s 735 mmHg 65%
    12:00 +32°C° 0 mm 1 m/s 734 mmHg 61%
    13:00 +33°C° 0 mm 1 m/s 734 mmHg 57%
    14:00 +33°C° 0 mm 1 m/s 733 mmHg 55%
    15:00 +34°C° 0 mm 1 m/s 733 mmHg 53%
    16:00 +34°C° 0 mm 1 m/s 732 mmHg 50%
    17:00 +32°C° 0.7 mm 1 m/s 733 mmHg 62%
    18:00 +30°C° 0.7 mm 1 m/s 733 mmHg 73%
    19:00 +27°C° 0.7 mm 1 m/s 733 mmHg 84%
    20:00 +27°C° 0.1 mm 1 m/s 734 mmHg 86%
    21:00 +26°C° 0.1 mm 1 m/s 735 mmHg 88%
    22:00 +26°C° 0.1 mm 2 m/s 735 mmHg 90%
    23:00 +25°C° 0 mm 2 m/s 735 mmHg 91%

    21 Ianuarie, Luni

    Timp Temperatura Precipitaţii Vânt Presiune Umiditate
    00:00 +25°C° 0 mm 1 m/s 735 mmHg 92%
    01:00 +25°C° 0 mm 1 m/s 735 mmHg 93%
    02:00 +25°C° 0 mm 1 m/s 735 mmHg 94%
    03:00 +24°C° 0 mm 1 m/s 734 mmHg 94%
    04:00 +24°C° 0 mm 1 m/s 734 mmHg 94%
    05:00 +24°C° 0 mm 1 m/s 735 mmHg 94%
    06:00 +24°C° 0 mm 1 m/s 735 mmHg 94%
    07:00 +24°C° 0 mm 1 m/s 735 mmHg 94%
    08:00 +26°C° 0 mm 1 m/s 736 mmHg 88%
    09:00 +27°C° 0 mm 1 m/s 736 mmHg 81%
    10:00 +28°C° 0 mm 1 m/s 736 mmHg 74%
    11:00 +30°C° 0 mm 2 m/s 736 mmHg 69%
    12:00 +31°C° 0 mm 2 m/s 735 mmHg 64%
    13:00 +32°C° 0 mm 2 m/s 734 mmHg 58%
    14:00 +32°C° 0.2 mm 2 m/s 733 mmHg 57%
    15:00 +34°C° 0.2 mm 2 m/s 733 mmHg 56%
    16:00 +33°C° 0.2 mm 1 m/s 732 mmHg 55%
    17:00 +31°C° 0.2 mm 1 m/s 732 mmHg 62%
    18:00 +30°C° 0.2 mm 1 m/s 733 mmHg 69%
    19:00 +26°C° 0.2 mm 0 m/s 733 mmHg 77%
    20:00 +27°C° 0.9 mm 1 m/s 734 mmHg 81%
    21:00 +26°C° 0.9 mm 1 m/s 734 mmHg 86%
    22:00 +25°C° 0.9 mm 2 m/s 735 mmHg 91%
    23:00 +25°C° 0 mm 1 m/s 734 mmHg 92%
    Arată mai mult